Goodland, KS

12:37 AM MDT on May 23, 2017 (GMT -0600)
Renner-Goodland Municipal

Weather History for KGLD - February, 2013

Change the Weather History Date:

Wednesday, February 6, 2013

  Actual Average Record
Temperature  
Mean Temperature 46 °F 30 °F  
Max Temperature 63 °F 43 °F 77 °F (2015)
Min Temperature 28 °F 18 °F -13 °F (1914)
Degree Days  
Heating Degree Days 19 35  
Month to date heating degree days 158 210  
Since 1 July heating degree days 3494 3713  
Cooling Degree Days 0 0  
Month to date cooling degree days 0 0  
Year to date cooling degree days 0 0  
Moisture  
Dew Point 20 °F    
Average Humidity 38    
Maximum Humidity 59    
Minimum Humidity 17    
Precipitation  
Precipitation 0.00 in 0.02 in 0.20 in (1919)
Month to date precipitation 0.00 0.09  
Year to date precipitation 0.07 0.47  
Snow  
Snow 0.00 in 0.20 in - ()
Month to date snowfall 0.0 1.3  
Since 1 July snowfall 10.7 19.9  
Snow Depth 0.00 in    
Sea Level Pressure  
Sea Level Pressure 29.84 in    
Wind  
Wind Speed 12 mph (NW)    
Max Wind Speed 24 mph    
Max Gust Speed 29 mph    
Visibility 10 miles    
Events      
T = Trace of Precipitation, MM = Missing Value Source: NWS Daily Summary

Daily Weather History Graph

Daily Weather History Graph

Search for Another Location

Airport or City:

Trip Planner

Search our weather history database for the weather conditions in past years. The results will help you decide how hot, cold, wet, or windy it might be!

Date:

Astronomy

Feb. 06, 2013 Rise Set
Actual Time 6:48 AM MST 5:13 PM MST
Civil Twilight 6:20 AM MST 5:41 PM MST
Nautical Twilight 5:48 AM MST 6:13 PM MST
Astronomical Twilight 5:17 AM MST 6:44 PM MST
Moon 3:33 AM MST (2/6) 1:34 PM MST (2/6)
Length of Visible Light 11h 20m
Length of Day
10h 24m
Waning Crescent, 16% of the Moon is Illuminated
Feb 6
Waning Crescent
Feb 10
New
Feb 17
First Quarter
Feb 25
Full
Mar 4
Last Quarter

Hourly Weather History & Observations

Time (MST) Temp. Windchill Dew Point Humidity Pressure Visibility Wind Dir Wind Speed Gust Speed Precip Events Conditions
12:53 AM 33.1 °F 24.4 °F 18.0 °F 54% 29.90 in 10.0 mi South 11.5 mph - N/A   Clear
1:53 AM 33.8 °F 24.3 °F 19.4 °F 56% 29.88 in 10.0 mi South 13.8 mph - N/A   Clear
2:53 AM 30.0 °F 20.0 °F 18.0 °F 61% 29.85 in 10.0 mi South 12.7 mph - N/A   Clear
3:53 AM 34.0 °F 24.2 °F 18.0 °F 52% 29.84 in 10.0 mi South 15.0 mph - N/A   Clear
4:53 AM 30.0 °F 20.0 °F 18.0 °F 61% 29.83 in 10.0 mi South 12.7 mph - N/A   Clear
5:53 AM 32.0 °F 21.2 °F 19.4 °F 60% 29.80 in 10.0 mi South 16.1 mph - N/A   Clear
6:53 AM 34.0 °F 25.5 °F 19.9 °F 56% 29.84 in 10.0 mi SSW 11.5 mph - N/A   Clear
7:53 AM 30.0 °F 24.1 °F 18.0 °F 61% 29.86 in 10.0 mi West 5.8 mph - N/A   Clear
8:53 AM 39.0 °F 34.0 °F 19.9 °F 46% 29.83 in 10.0 mi SW 6.9 mph - N/A   Clear
9:53 AM 46.9 °F - 19.9 °F 34% 29.81 in 7.0 mi SW 6.9 mph - N/A   Clear
10:53 AM 52.0 °F - 19.9 °F 28% 29.79 in 10.0 mi WSW 6.9 mph - N/A   Clear
11:53 AM 55.0 °F - 19.0 °F 24% 29.77 in 9.0 mi Variable 3.5 mph - N/A   Clear
12:53 PM 59.0 °F - 19.0 °F 21% 29.75 in 10.0 mi NNW 6.9 mph - N/A   Clear
1:53 PM 62.1 °F - 19.0 °F 19% 29.72 in 10.0 mi North 9.2 mph - N/A   Clear
2:53 PM 62.1 °F - 17.1 °F 18% 29.73 in 10.0 mi North 19.6 mph 25.3 mph N/A   Clear
3:53 PM 61.0 °F - 19.0 °F 20% 29.75 in 10.0 mi NNE 16.1 mph - N/A   Clear
4:53 PM 52.0 °F - 19.0 °F 27% 29.81 in 10.0 mi NNE 8.1 mph - N/A   Clear
5:53 PM 45.0 °F 40.1 °F 17.1 °F 33% 29.84 in 10.0 mi North 9.2 mph - N/A   Clear
6:53 PM 46.0 °F 41.4 °F 19.0 °F 34% 29.86 in 10.0 mi North 9.2 mph - N/A   Clear
7:53 PM 46.9 °F - 21.0 °F 36% 29.89 in 10.0 mi North 11.5 mph - N/A   Overcast
8:53 PM 46.0 °F 41.0 °F 19.9 °F 35% 29.90 in 10.0 mi North 10.4 mph - N/A   Overcast
9:53 PM 46.0 °F 38.8 °F 21.0 °F 37% 29.91 in 10.0 mi North 18.4 mph - N/A   Overcast
10:53 PM 42.1 °F 33.6 °F 25.0 °F 51% 29.94 in 10.0 mi North 18.4 mph 26.5 mph N/A   Overcast
11:53 PM 41.0 °F 31.9 °F 27.0 °F 57% 29.96 in 10.0 mi North 19.6 mph - N/A   Overcast